Location: Clanezzo
(45.7500°N, 9.6000°E)
Time: 08:20:43
(UTC+00:00)

AO-92 - Pass Details

Date: 05 July 2022
Orbit: 469 x 481 km, 97.4° (Epoch: 17 August)

Event Time Altitude Azimuth Distance (km) Brightness Sun altitude
Exits shadow 21:03:33 27° 138° (SE) 960 ? -14.2°
Maximum altitude 21:05:13 52° 74° (ENE) 607 ? -14.4°
Drops below altitude 10° 21:08:43 10° 357° (N) 1,673 ? -14.7°
Sets 21:10:50 0° 353° (N) 2,560 ? -14.9°
